Home   Weather   Woodbridge Green Park   Past weeks
Flag for USA

Past Weather in Woodbridge Green Park, Ohio, USA — Yesterday and Last 2 Weeks

Now
47 °F

Overcast.


Feels Like: 40 °F
Forecast: 55 / 43 °F
Wind: 16 mph from Northwest

Location: John Glenn Columbus International Airport

Current Time: Oct 17, 2019 at 7:06:16 am

Latest Report: Oct 17, 2019 at 5:51 am


Visibility: 10 mi

Pressure: 29.89 "Hg

Humidity: 66%

Dew Point: 36 °F

Location of Woodbridge Green ParkLocation

Past Weather in Woodbridge Green Park — Graph

°F

Woodbridge Green Park Temperature Yesterday

Maximum temperature yesterday: 65 °F (at 1:51 am)
Minimum temperature yesterday: 48 °F (at 7:51 am)
Average temperature yesterday: 51 °F

High & Low Weather Summary for the Past Weeks

 TemperatureHumidityPressure
High92 °F (Oct 2, 3:51 pm)97% (Oct 8, 12:51 am)30.30 "Hg (Oct 8, 12:51 am)
Low38 °F (Oct 13, 5:51 am)20% (Oct 13, 4:51 pm)29.64 "Hg (Oct 16, 4:51 am)
Average60 °F65%30.06 "Hg
* Reported Oct 2 5:51 am — Oct 17 5:51 am, Woodbridge Green Park. Weather by CustomWeather, © 2019

Note: Actual official high and low records may vary slightly from our data, if they occured in-between our weather recording intervals... More about our weather records

Advertising

Woodbridge Green Park Weather History for the Previous 24 Hours

Scroll right to see more
 ConditionsComfort  
Time TempWeatherWind HumidityBarometerVisibility
5:51 am
Thu, Oct 17
47 °FOvercast.16 mph66%29.89 "Hg10 mi
4:51 am44 °FPassing clouds.14 mph76%29.88 "Hg10 mi
3:51 am44 °FPassing clouds.12 mph73%29.88 "Hg10 mi
2:51 am45 °FPassing clouds.20 mph71%29.88 "Hg10 mi
1:51 am47 °FOvercast.20 mph69%29.87 "Hg10 mi
12:51 am48 °FOvercast.18 mph66%29.87 "Hg10 mi
11:51 pm
Wed, Oct 16
48 °FMostly cloudy.16 mph66%29.87 "Hg10 mi
11:18 pm48 °FMostly cloudy.18 mph66%29.86 "Hg10 mi
10:51 pm49 °FMostly cloudy.20 mph64%29.85 "Hg10 mi
10:35 pm49 °FMostly cloudy.21 mph66%29.85 "Hg10 mi
9:51 pm48 °FMostly cloudy.22 mph68%29.85 "Hg10 mi
8:51 pm48 °FOvercast.22 mph71%29.84 "Hg10 mi
7:51 pm48 °FOvercast.17 mph71%29.83 "Hg10 mi
6:51 pm48 °FMostly cloudy.22 mph71%29.80 "Hg10 mi
5:51 pm48 °FLight rain. Mostly cloudy.21 mph74%29.80 "Hg6 mi
4:51 pm50 °FMostly cloudy.16 mph66%29.78 "Hg10 mi
3:51 pm50 °FPartly sunny.18 mph63%29.77 "Hg10 mi
2:51 pm49 °FOvercast.20 mph64%29.77 "Hg10 mi
1:51 pm49 °FMostly cloudy.14 mph64%29.78 "Hg10 mi
12:51 pm48 °FOvercast.16 mph66%29.79 "Hg10 mi
12:30 pm48 °FOvercast.18 mph66%29.79 "Hg10 mi
11:51 am49 °FOvercast.16 mph66%29.78 "Hg10 mi
10:51 am49 °FBroken clouds.21 mph74%29.76 "Hg10 mi
10:02 am49 °FScattered clouds.18 mph80%29.74 "Hg10 mi
9:51 am48 °FBroken clouds.17 mph83%29.74 "Hg8 mi
8:51 am48 °FCloudy.5 mph89%29.71 "Hg10 mi
7:51 am48 °FLight rain. Overcast.6 mph86%29.69 "Hg7 mi
Weather by CustomWeather, © 2019

See weather overview